This demonstration page uses our WeatherBlox Daily Observations layout. Learn more.

Left ArrowRight Arrow

Hourly Observations for May 5, 2015

Temp ( °F °C ) Dew Point ( °F °C ) Humidity (%) Winds ( mph kmh ) Pressure ( in mb ) Visibility ( mi km ) Precip ( " mm )
12:52 am 00:52 Cloudy 60 15.6 57 13.9 90 90 SSE 3 6 30.06 1018 9 14 0.00 0.00
1:52 am 01:52 Cloudy 60 15.6 57 13.9 90 90 N 5 7 30.05 1018 7 11 0.00 0.00
2:34 am 02:34 Cloudy 59 15 57 14 94 94 N 8 13 30.06 1018 7 11 0.00 0.00
2:52 am 02:52 Cloudy with Mist and Fog 59 15 57 13.9 93 93 N 9 15 30.04 1017 6 10 0.00 0.00
3:23 am 03:23 Cloudy with Mist and Fog 58 14.4 57 13.9 97 97 N 9 15 30.03 1017 5 8 0.00 0.00
3:52 am 03:52 Cloudy with Mist and Fog 58 14.4 57 13.9 97 97 N 8 13 30.03 1017 3 5 0.00 0.00
4:23 am 04:23 Cloudy with Mist and Fog 58 14.4 57 13.9 97 97 NNW 5 7 30.03 1017 3 5 0.00 0.00
4:52 am 04:52 Cloudy with Mist and Fog 58 14.4 57 13.9 97 97 N 3 6 30.03 1017 3 5 0.00 0.00
5:37 am 05:37 Cloudy with Mist and Fog 59 15 57 13.9 93 93 ESE 7 11 30.06 1018 3 5 0.00 0.00
5:52 am 05:52 Cloudy with Mist and Fog 59 15 58 14.4 96 96 SE 9 15 30.06 1018 4 6 0.00 0.00
6:40 am 06:40 Cloudy with Mist and Fog 61 16 57 14 88 88 Calm 30.06 1018 4 6 0.00 0.00
6:52 am 06:52 Mostly Cloudy with Mist and Fog 60 15.6 58 14.4 93 93 ESE 3 6 30.06 1018 4 6 0.00 0.00
7:13 am 07:13 Cloudy with Mist and Fog 61 16.1 58 14.4 90 90 SE 6 9 30.06 1018 3 5 0.00 0.00
7:52 am 07:52 Cloudy with Mist and Fog 61 16.1 59 15 93 93 SE 6 9 30.07 1018 6 10 0.00 0.00
8:25 am 08:25 Cloudy 62 16.7 60 15.6 93 93 SSE 7 11 30.09 1019 7 11 0.00 0.00
8:52 am 08:52 Cloudy 63 17.2 60 15.6 90 90 SSE 9 15 30.08 1019 7 11 0.00 0.00
9:41 am 09:41 Mostly Cloudy 65 18.3 60 15.6 84 84 S 10 17 30.06 1018 10 16 0.00 0.00
9:52 am 09:52 Mostly Cloudy 65 18.3 60 15.6 84 84 S 9 15 30.08 1019 10 16 0.00 0.00
10:52 am 10:52 Cloudy 67 19.4 60 15.6 79 79 S 7 11 30.07 1018 10 16 0.00 0.00
11:52 am 11:52 Cloudy 71 21.7 60 15.6 68 68 SSE 13 20 30.07 1018 10 16 0.00 0.00
12:52 pm 12:52 Cloudy 72 22.2 61 16.1 68 68 S 14 22 30.06 1018 10 16 0.00 0.00
1:52 pm 13:52 Cloudy 74 23.3 62 16.7 67 67 SSE 15 24 30.04 1017 10 16 0.00 0.00
2:52 pm 14:52 Cloudy 76 24.4 60 15.6 58 58 SSE 13 20 30.02 1017 10 16 0.00 0.00
3:52 pm 15:52 Cloudy 77 25 59 15 54 54 S 14 22 29.99 1016 10 16 0.00 0.00
4:52 pm 16:52 Cloudy 76 24.4 59 15 56 56 SE 16 26 29.98 1015 10 16 0.00 0.00
5:52 pm 17:52 Cloudy 77 25 57 13.9 50 50 S 20 31 29.96 1015 10 16 0.00 0.00
6:52 pm 18:52 Cloudy 75 23.9 59 15 58 58 SSE 13 20 29.95 1014 10 16 0.00 0.00
7:52 pm 19:52 Cloudy 73 22.8 59 15 62 62 SE 10 17 29.95 1014 10 16 0.00 0.00
8:52 pm 20:52 Cloudy 72 22.2 59 15 64 64 SE 12 19 29.95 1014 10 16 0.00 0.00
9:52 pm 21:52 Mostly Cloudy 72 22.2 58 14.4 61 61 SE 15 24 29.96 1015 10 16 0.00 0.00
10:52 pm 22:52 Cloudy 71 21.7 58 14.4 63 63 SSE 18 30 29.96 1015 10 16 0.00 0.00
11:52 pm 23:52 Cloudy 69 20.6 58 14.4 68 68 SSE 17 28 29.96 1015 10 16 0.00 0.03

Powered by AerisWeather